THORAD AGENA D DEB, 5203

Orbit data source: Space-Track

THORAD AGENA D DEB, 5203 is space debris in SSO originally from a launch on Wed, 08 Apr 1970 UTC launched from the Air Force Western Test Range (AFWTR). Debris objects in space refer to the collection of defunct objects orbiting the Earth. Examples of debris include non-operational satellites, rocket bodies, and fragments generated from explosions, collisions, or faulty payload assembly.

Loading next visibility...
Identifier
5203, 1970-025KE
Orbit
SSO
Country
Flag of USUS
Related business
Manufacturer
Unknown
Mission
Spacecraft
Bus & Motor
Unknown
Mass
Unknown
Launch date (UTC)
1970-04-08 (56 years ago)
Launch vehicle
Unknown
Launch site
Air Force Western Test Range (AFWTR)
Object type
Payload
Rocket body
Debris
Shape & HBR
Unknown shape, 0.1 m
Radar Cross Section
Small (<0.1 m²)

Expand to show TLE details & history
Last TLE update: 7 hours ago

TLE from 7 hours ago
0 THORAD AGENA D DEB
1 05203U 70025KE  26095.57360518  .00000617  00000-0  14989-2 0  9998
2 05203  99.8321 133.5562 0219756 248.5654 268.8016 13.17604775673449
Epoch: 2026-04-05T13:45Z
TLE epoch observation values (Epoch: 2026-04-05T13:45:59.487Z)
Latitude
24.78117°
Longitude
-82.25287°
Altitude
1,203.861 km
Speed
7.251 km/s
True Right ascension
21h 12m 29s
True Declination
24° 39' 30"
Sunlit
Object was in daylight at epoch
Visualization orbit readout
Latitude
Unknown
Longitude
Unknown
Altitude
Unknown
Speed
Unknown
Apparent Right ascension
Unknown
Apparent Declination
Unknown
Sunlit
N/A
Visualization observer readout
Local Sidereal Time
03:00:07
Azimuth
Unknown
Elevation
Unknown
Doppler factor
Unknown
Orbital elements
Apogee altitude
1,357.574 km
Perigee altitude
1,024.891 km
Semi-major axis
7,569.369 km
Eccentricity
0.02198
Inclination
99.8321°
RAAN
133.5562°
Arg. of periapsis
248.5654°
True anomaly
266.28619°
Mean anomaly
268.8016°
Eccentric anomaly
267.54365°
Mean motion
3.29575 °/min
Orbital period
109.23 mins
BSTAR
0.0014989
Loading maneuver chart data...
Computing Atmospheric mass density...

Documentation

Showing up to 5 results
|